owner,sensor,date,latitude,longitude,vertical_datum,direction_of_sea_water_velocity,sea_water_speed,upward_sea_water_velocity,qcFlag 
TABS,ioos:station:wmo:42051:1,2003-08-01T00:00:00Z,29.6350,-93.6417,2.0,108.7586065,29.66580017,-99999.0,'11111222,11111222,99999999' 
TABS,ioos:station:wmo:42051:1,2003-08-01T00:30:00Z,29.6350,-93.6417,2.0,103.5133542,30.29881186,-99999.0,'11111222,11111222,99999999' 
TABS,ioos:station:wmo:42051:1,2003-08-01T01:00:00Z,29.6350,-93.6417,2.0,94.87375537,34.13341618,-99999.0,'11111222,11111222,99999999' 
TABS,ioos:station:wmo:42051:1,2003-08-01T01:30:00Z,29.6350,-93.6417,2.0,97.46643672,31.01295536,-99999.0,'11111222,11111222,99999999' 
TABS,ioos:station:wmo:42051:1,2003-08-01T02:00:00Z,29.6350,-93.6417,2.0,94.23486765,27.89616461,-99999.0,'11111222,11111222,99999999' 
TABS,ioos:station:wmo:42051:1,2003-08-01T02:30:00Z,29.6350,-93.6417,2.0,93.20790419,30.55788278,-99999.0,'11111222,11111222,99999999' 
TABS,ioos:station:wmo:42051:1,2003-08-01T03:00:00Z,29.6350,-93.6417,2.0,91.73349009,31.40437231,-99999.0,'11111222,11111222,99999999' 
TABS,ioos:station:wmo:42051:1,2003-08-01T03:30:00Z,29.6350,-93.6417,2.0,82.45059589,30.14126739,-99999.0,'11111222,11111222,99999999' 
TABS,ioos:station:wmo:42051:1,2003-08-01T04:00:00Z,29.6350,-93.6417,2.0,84.08548869,30.47221193,-99999.0,'11111222,11111222,99999999' 
TABS,ioos:station:wmo:42051:1,2003-08-01T04:30:00Z,29.6350,-93.6417,2.0,79.03350103,29.12180798,-99999.0,'11111222,11111222,99999999' 
TABS,ioos:station:wmo:42051:1,2003-08-01T05:00:00Z,29.6350,-93.6417,2.0,72.59438916,30.45448571,-99999.0,'11111222,11111222,99999999' 
TABS,ioos:station:wmo:42051:1,2003-08-01T05:30:00Z,29.6350,-93.6417,2.0,76.94210002,27.13156464,-99999.0,'11111222,11111222,99999999' 
TABS,ioos:station:wmo:42051:1,2003-08-01T06:00:00Z,29.6350,-93.6417,2.0,68.9527652,25.25489655,-99999.0,'11111222,11111222,99999999' 
TABS,ioos:station:wmo:42051:1,2003-08-01T06:30:00Z,29.6350,-93.6417,2.0,69.36987775,21.71232139,-99999.0,'11111222,11111222,99999999' 
TABS,ioos:station:wmo:42051:1,2003-08-01T07:00:00Z,29.6350,-93.6417,2.0,66.23134546,24.01713555,-99999.0,'11111222,11111222,99999999' 
TABS,ioos:station:wmo:42051:1,2003-08-01T07:30:00Z,29.6350,-93.6417,2.0,61.51423052,16.14453778,-99999.0,'11111222,11111222,99999999' 
TABS,ioos:station:wmo:42051:1,2003-08-01T08:00:00Z,29.6350,-93.6417,2.0,58.50225346,17.11115718,-99999.0,'11111222,11111222,99999999' 
TABS,ioos:station:wmo:42051:1,2003-08-01T08:30:00Z,29.6350,-93.6417,2.0,54.98000304,15.05584604,-99999.0,'11111222,11111222,99999999' 
TABS,ioos:station:wmo:42051:1,2003-08-01T09:00:00Z,29.6350,-93.6417,2.0,62.47304759,11.98701381,-99999.0,'11111222,11111222,99999999' 
TABS,ioos:station:wmo:42051:1,2003-08-01T09:30:00Z,29.6350,-93.6417,2.0,43.656264,12.9648332,-99999.0,'11111222,11111222,99999999' 
TABS,ioos:station:wmo:42051:1,2003-08-01T10:00:00Z,29.6350,-93.6417,2.0,59.18222977,12.12155931,-99999.0,'11111222,11111222,99999999' 
TABS,ioos:station:wmo:42051:1,2003-08-01T10:30:00Z,29.6350,-93.6417,2.0,52.14042324,9.841468386,-99999.0,'11133222,11111222,99999999' 
TABS,ioos:station:wmo:42051:1,2003-08-01T11:00:00Z,29.6350,-93.6417,2.0,69.97185136,11.94221504,-99999.0,'11111222,11111222,99999999' 
TABS,ioos:station:wmo:42051:1,2003-08-01T11:30:00Z,29.6350,-93.6417,2.0,72.92110243,7.082323065,-99999.0,'11133222,11111222,99999999' 
TABS,ioos:station:wmo:42051:1,2003-08-01T12:00:00Z,29.6350,-93.6417,2.0,74.33409842,12.10985136,-99999.0,'11111222,11111222,99999999' 
TABS,ioos:station:wmo:42051:1,2003-08-01T12:30:00Z,29.6350,-93.6417,2.0,73.44587398,10.21333442,-99999.0,'11111222,11111222,99999999' 
TABS,ioos:station:wmo:42051:1,2003-08-01T13:00:00Z,29.6350,-93.6417,2.0,68.7408225,10.20441571,-99999.0,'11111222,11111222,99999999' 
TABS,ioos:station:wmo:42051:1,2003-08-01T13:30:00Z,29.6350,-93.6417,2.0,81.53670423,13.86094153,-99999.0,'11111222,11111222,99999999' 
TABS,ioos:station:wmo:42051:1,2003-08-01T14:00:00Z,29.6350,-93.6417,2.0,84.12132044,12.88777716,-99999.0,'11111222,11111222,99999999' 
TABS,ioos:station:wmo:42051:1,2003-08-01T14:30:00Z,29.6350,-93.6417,2.0,87.65435057,15.39289771,-99999.0,'11111222,11111222,99999999' 
TABS,ioos:station:wmo:42051:1,2003-08-01T15:00:00Z,29.6350,-93.6417,2.0,91.27545568,15.72389583,-99999.0,'11111222,11111222,99999999' 
TABS,ioos:station:wmo:42051:1,2003-08-01T15:30:00Z,29.6350,-93.6417,2.0,87.47631948,13.8534364,-99999.0,'11111222,11111222,99999999' 
TABS,ioos:station:wmo:42051:1,2003-08-01T16:00:00Z,29.6350,-93.6417,2.0,77.32392012,13.07878052,-99999.0,'11111222,11111222,99999999' 
TABS,ioos:station:wmo:42051:1,2003-08-01T16:30:00Z,29.6350,-93.6417,2.0,80.1698508,19.9732446,-99999.0,'11111222,11111222,99999999' 
TABS,ioos:station:wmo:42051:1,2003-08-01T17:00:00Z,29.6350,-93.6417,2.0,107.5848079,28.13471877,-99999.0,'11111222,11111222,99999999' 
TABS,ioos:station:wmo:42051:1,2003-08-01T17:30:00Z,29.6350,-93.6417,2.0,109.4306741,27.29457822,-99999.0,'11111222,11111222,99999999' 
TABS,ioos:station:wmo:42051:1,2003-08-01T18:00:00Z,29.6350,-93.6417,2.0,109.1194005,25.67636462,-99999.0,'11111222,11111222,99999999' 
TABS,ioos:station:wmo:42051:1,2003-08-01T18:30:00Z,29.6350,-93.6417,2.0,117.227942,22.03121649,-99999.0,'11111222,11111222,99999999' 
TABS,ioos:station:wmo:42051:1,2003-08-01T19:00:00Z,29.6350,-93.6417,2.0,115.8691725,21.72723866,-99999.0,'11111222,11111222,99999999' 
TABS,ioos:station:wmo:42051:1,2003-08-01T19:30:00Z,29.6350,-93.6417,2.0,117.9057689,17.39242651,-99999.0,'11111222,11111222,99999999' 
TABS,ioos:station:wmo:42051:1,2003-08-01T20:00:00Z,29.6350,-93.6417,2.0,125.7188548,15.43311375,-99999.0,'11111222,11111222,99999999' 
TABS,ioos:station:wmo:42051:1,2003-08-01T20:30:00Z,29.6350,-93.6417,2.0,132.9994371,10.93853738,-99999.0,'11111222,11111222,99999999' 
TABS,ioos:station:wmo:42051:1,2003-08-01T21:00:00Z,29.6350,-93.6417,2.0,112.206055,12.35647603,-99999.0,'11111222,11111222,99999999' 
TABS,ioos:station:wmo:42051:1,2003-08-01T21:30:00Z,29.6350,-93.6417,2.0,101.8396794,11.4536719,-99999.0,'11111222,11111222,99999999' 
TABS,ioos:station:wmo:42051:1,2003-08-01T22:00:00Z,29.6350,-93.6417,2.0,84.60919167,14.26308522,-99999.0,'11111222,11111222,99999999' 
TABS,ioos:station:wmo:42051:1,2003-08-01T22:30:00Z,29.6350,-93.6417,2.0,75.70906825,16.36646571,-99999.0,'11111222,11111222,99999999' 
TABS,ioos:station:wmo:42051:1,2003-08-01T23:00:00Z,29.6350,-93.6417,2.0,68.19278604,18.17028894,-99999.0,'11111222,11111222,99999999' 
TABS,ioos:station:wmo:42051:1,2003-08-01T23:30:00Z,29.6350,-93.6417,2.0,73.21185116,17.27633352,-99999.0,'11111222,11111222,99999999' 
TABS,ioos:station:wmo:42051:1,2003-08-02T00:00:00Z,29.6350,-93.6417,2.0,56.79038128,19.51781238,-99999.0,'11111222,11111222,99999999' 
TABS,ioos:station:wmo:42051:1,2003-08-02T00:30:00Z,29.6350,-93.6417,2.0,65.64578055,21.67916281,-99999.0,'11111222,11111222,99999999' 
TABS,ioos:station:wmo:42051:1,2003-08-02T01:00:00Z,29.6350,-93.6417,2.0,69.76696434,24.08628033,-99999.0,'11111222,11111222,99999999' 
TABS,ioos:station:wmo:42051:1,2003-08-02T01:30:00Z,29.6350,-93.6417,2.0,76.73750389,29.81519747,-99999.0,'11111222,11111222,99999999' 
TABS,ioos:station:wmo:42051:1,2003-08-02T02:00:00Z,29.6350,-93.6417,2.0,82.01305913,29.43553295,-99999.0,'11111222,11111222,99999999' 
TABS,ioos:station:wmo:42051:1,2003-08-02T02:30:00Z,29.6350,-93.6417,2.0,82.22575339,31.19673861,-99999.0,'11111222,11111222,99999999' 
TABS,ioos:station:wmo:42051:1,2003-08-02T03:00:00Z,29.6350,-93.6417,2.0,82.62428558,30.61330593,-99999.0,'11111222,11111222,99999999' 
TABS,ioos:station:wmo:42051:1,2003-08-02T03:30:00Z,29.6350,-93.6417,2.0,79.63010811,26.77737851,-99999.0,'11111222,11111222,99999999' 
TABS,ioos:station:wmo:42051:1,2003-08-02T04:00:00Z,29.6350,-93.6417,2.0,87.63282701,25.42169349,-99999.0,'11111222,11111222,99999999' 
TABS,ioos:station:wmo:42051:1,2003-08-02T04:30:00Z,29.6350,-93.6417,2.0,86.86681126,27.26075017,-99999.0,'11111222,11111222,99999999' 
TABS,ioos:station:wmo:42051:1,2003-08-02T05:00:00Z,29.6350,-93.6417,2.0,87.25422693,23.79732128,-99999.0,'11111222,11111222,99999999' 
TABS,ioos:station:wmo:42051:1,2003-08-02T05:30:00Z,29.6350,-93.6417,2.0,84.74852806,25.45685369,-99999.0,'11111222,11111222,99999999' 
TABS,ioos:station:wmo:42051:1,2003-08-02T06:00:00Z,29.6350,-93.6417,2.0,77.35024917,24.6585401,-99999.0,'11111222,11111222,99999999' 
TABS,ioos:station:wmo:42051:1,2003-08-02T06:30:00Z,29.6350,-93.6417,2.0,74.10222304,21.5024301,-99999.0,'11111222,11111222,99999999' 
TABS,ioos:station:wmo:42051:1,2003-08-02T07:00:00Z,29.6350,-93.6417,2.0,71.19582624,18.64517632,-99999.0,'11111222,11111222,99999999' 
TABS,ioos:station:wmo:42051:1,2003-08-02T07:30:00Z,29.6350,-93.6417,2.0,71.16808839,18.71164611,-99999.0,'11111222,11111222,99999999' 
TABS,ioos:station:wmo:42051:1,2003-08-02T08:00:00Z,29.6350,-93.6417,2.0,66.77179225,12.67763779,-99999.0,'11111222,11111222,99999999' 
TABS,ioos:station:wmo:42051:1,2003-08-02T08:30:00Z,29.6350,-93.6417,2.0,67.63240116,17.47478469,-99999.0,'11111222,11111222,99999999' 
TABS,ioos:station:wmo:42051:1,2003-08-02T09:00:00Z,29.6350,-93.6417,2.0,53.78487621,14.35293698,-99999.0,'11111222,11111222,99999999' 
TABS,ioos:station:wmo:42051:1,2003-08-02T09:30:00Z,29.6350,-93.6417,2.0,47.12611348,12.19891798,-99999.0,'11111222,11111222,99999999' 
TABS,ioos:station:wmo:42051:1,2003-08-02T10:00:00Z,29.6350,-93.6417,2.0,52.87445803,9.858098194,-99999.0,'11133222,11111222,99999999' 
TABS,ioos:station:wmo:42051:1,2003-08-02T10:30:00Z,29.6350,-93.6417,2.0,36.25992675,10.33058566,-99999.0,'11111222,11111222,99999999' 
TABS,ioos:station:wmo:42051:1,2003-08-02T11:30:00Z,29.6350,-93.6417,2.0,56.52803016,7.288813346,-99999.0,'11133222,11111222,99999999' 
TABS,ioos:station:wmo:42051:1,2003-08-02T12:00:00Z,29.6350,-93.6417,2.0,43.66041385,7.561038288,-99999.0,'11133222,11111222,99999999' 
TABS,ioos:station:wmo:42051:1,2003-08-02T12:30:00Z,29.6350,-93.6417,2.0,54.72333564,7.913058827,-99999.0,'11133222,11111222,99999999' 
TABS,ioos:station:wmo:42051:1,2003-08-02T13:00:00Z,29.6350,-93.6417,2.0,76.97563416,8.652594986,-99999.0,'11133222,11111222,99999999' 
TABS,ioos:station:wmo:42051:1,2003-08-02T13:30:00Z,29.6350,-93.6417,2.0,72.91034165,9.698216331,-99999.0,'11133222,11111222,99999999' 
TABS,ioos:station:wmo:42051:1,2003-08-02T14:00:00Z,29.6350,-93.6417,2.0,77.90137009,10.25784578,-99999.0,'11111222,11111222,99999999' 
TABS,ioos:station:wmo:42051:1,2003-08-02T14:30:00Z,29.6350,-93.6417,2.0,86.7622737,10.97752249,-99999.0,'11111222,11111222,99999999' 
TABS,ioos:station:wmo:42051:1,2003-08-02T15:00:00Z,29.6350,-93.6417,2.0,83.04607664,14.12389819,-99999.0,'11111222,11111222,99999999' 
TABS,ioos:station:wmo:42051:1,2003-08-02T15:30:00Z,29.6350,-93.6417,2.0,79.20172353,13.39722733,-99999.0,'11111222,11111222,99999999' 
TABS,ioos:station:wmo:42051:1,2003-08-02T16:00:00Z,29.6350,-93.6417,2.0,71.02425971,15.74568195,-99999.0,'11111222,11111222,99999999' 
TABS,ioos:station:wmo:42051:1,2003-08-02T16:30:00Z,29.6350,-93.6417,2.0,85.97593024,19.23742706,-99999.0,'11111222,11111222,99999999' 
TABS,ioos:station:wmo:42051:1,2003-08-02T17:00:00Z,29.6350,-93.6417,2.0,87.97458726,13.29830816,-99999.0,'11111222,11111222,99999999' 
TABS,ioos:station:wmo:42051:1,2003-08-02T17:30:00Z,29.6350,-93.6417,2.0,89.46579035,12.87055943,-99999.0,'11111222,11111222,99999999' 
TABS,ioos:station:wmo:42051:1,2003-08-02T18:00:00Z,29.6350,-93.6417,2.0,89.13247627,16.51189268,-99999.0,'11111222,11111222,99999999' 
TABS,ioos:station:wmo:42051:1,2003-08-02T18:30:00Z,29.6350,-93.6417,2.0,75.07364764,22.01276448,-99999.0,'11111222,11111222,99999999' 
TABS,ioos:station:wmo:42051:1,2003-08-02T19:00:00Z,29.6350,-93.6417,2.0,74.22609545,21.11516043,-99999.0,'11111222,11111222,99999999' 
TABS,ioos:station:wmo:42051:1,2003-08-02T19:30:00Z,29.6350,-93.6417,2.0,68.00425498,21.89360637,-99999.0,'11111222,11111222,99999999' 
TABS,ioos:station:wmo:42051:1,2003-08-02T20:00:00Z,29.6350,-93.6417,2.0,93.53975199,29.31592912,-99999.0,'11111222,11111222,99999999' 
TABS,ioos:station:wmo:42051:1,2003-08-02T20:30:00Z,29.6350,-93.6417,2.0,100.1713601,28.03052978,-99999.0,'11111222,11111222,99999999' 
TABS,ioos:station:wmo:42051:1,2003-08-02T21:00:00Z,29.6350,-93.6417,2.0,99.59921607,24.76677815,-99999.0,'11111222,11111222,99999999' 
TABS,ioos:station:wmo:42051:1,2003-08-02T21:30:00Z,29.6350,-93.6417,2.0,94.3093946,21.15982278,-99999.0,'11111222,11111222,99999999' 
TABS,ioos:station:wmo:42051:1,2003-08-02T22:00:00Z,29.6350,-93.6417,2.0,89.82925997,23.4901043,-99999.0,'11111222,11111222,99999999' 
TABS,ioos:station:wmo:42051:1,2003-08-02T22:30:00Z,29.6350,-93.6417,2.0,82.50149662,22.45200436,-99999.0,'11111222,11111222,99999999' 
TABS,ioos:station:wmo:42051:1,2003-08-02T23:00:00Z,29.6350,-93.6417,2.0,85.76249012,18.81142472,-99999.0,'11111222,11111222,99999999' 
TABS,ioos:station:wmo:42051:1,2003-08-02T23:30:00Z,29.6350,-93.6417,2.0,87.25936137,20.9139212,-99999.0,'11111222,11111222,99999999' 
TABS,ioos:station:wmo:42051:1,2003-08-03T00:00:00Z,29.6350,-93.6417,2.0,87.69815386,22.40808113,-99999.0,'11111222,11111222,99999999' 
TABS,ioos:station:wmo:42051:1,2003-08-03T00:30:00Z,29.6350,-93.6417,2.0,83.71775039,22.937744,-99999.0,'11111222,11111222,99999999' 
TABS,ioos:station:wmo:42051:1,2003-08-03T01:00:00Z,29.6350,-93.6417,2.0,89.31534807,18.41131446,-99999.0,'11111222,11111222,99999999' 
TABS,ioos:station:wmo:42051:1,2003-08-03T01:30:00Z,29.6350,-93.6417,2.0,84.49394105,23.13675215,-99999.0,'11111222,11111222,99999999' 
TABS,ioos:station:wmo:42051:1,2003-08-03T02:00:00Z,29.6350,-93.6417,2.0,84.81810062,29.00855908,-99999.0,'11111222,11111222,99999999' 
TABS,ioos:station:wmo:42051:1,2003-08-03T02:30:00Z,29.6350,-93.6417,2.0,90.05034765,22.76000879,-99999.0,'11111222,11111222,99999999' 
TABS,ioos:station:wmo:42051:1,2003-08-03T03:00:00Z,29.6350,-93.6417,2.0,86.67987644,24.69144386,-99999.0,'11111222,11111222,99999999' 
TABS,ioos:station:wmo:42051:1,2003-08-03T03:30:00Z,29.6350,-93.6417,2.0,87.65050802,26.83255672,-99999.0,'11111222,11111222,99999999' 
TABS,ioos:station:wmo:42051:1,2003-08-03T04:00:00Z,29.6350,-93.6417,2.0,91.48185273,24.74827671,-99999.0,'11111222,11111222,99999999' 
TABS,ioos:station:wmo:42051:1,2003-08-03T04:30:00Z,29.6350,-93.6417,2.0,85.98543708,25.28203512,-99999.0,'11111222,11111222,99999999' 
TABS,ioos:station:wmo:42051:1,2003-08-03T05:00:00Z,29.6350,-93.6417,2.0,81.30232102,24.26909557,-99999.0,'11111222,11111222,99999999' 
TABS,ioos:station:wmo:42051:1,2003-08-03T05:30:00Z,29.6350,-93.6417,2.0,85.97381357,23.35764543,-99999.0,'11111222,11111222,99999999' 
TABS,ioos:station:wmo:42051:1,2003-08-03T06:00:00Z,29.6350,-93.6417,2.0,77.57557919,19.05628768,-99999.0,'11111222,11111222,99999999' 
TABS,ioos:station:wmo:42051:1,2003-08-03T06:30:00Z,29.6350,-93.6417,2.0,78.85546482,20.38439599,-99999.0,'11111222,11111222,99999999' 
TABS,ioos:station:wmo:42051:1,2003-08-03T07:00:00Z,29.6350,-93.6417,2.0,71.29398127,20.04906482,-99999.0,'11111222,11111222,99999999' 
TABS,ioos:station:wmo:42051:1,2003-08-03T07:30:00Z,29.6350,-93.6417,2.0,68.92343742,18.9368688,-99999.0,'11111222,11111222,99999999' 
TABS,ioos:station:wmo:42051:1,2003-08-03T08:00:00Z,29.6350,-93.6417,2.0,70.7646854,18.78892493,-99999.0,'11111222,11111222,99999999' 
TABS,ioos:station:wmo:42051:1,2003-08-03T08:30:00Z,29.6350,-93.6417,2.0,61.70608108,17.19424613,-99999.0,'11111222,11111222,99999999' 
TABS,ioos:station:wmo:42051:1,2003-08-03T09:00:00Z,29.6350,-93.6417,2.0,48.94816968,14.48055593,-99999.0,'11111222,11111222,99999999' 
TABS,ioos:station:wmo:42051:1,2003-08-03T09:30:00Z,29.6350,-93.6417,2.0,57.10494443,13.99365928,-99999.0,'11111222,11111222,99999999' 
TABS,ioos:station:wmo:42051:1,2003-08-03T10:00:00Z,29.6350,-93.6417,2.0,48.90480266,13.08356221,-99999.0,'11111222,11111222,99999999' 
TABS,ioos:station:wmo:42051:1,2003-08-03T10:30:00Z,29.6350,-93.6417,2.0,64.31754415,10.45262168,-99999.0,'11111222,11111222,99999999' 
TABS,ioos:station:wmo:42051:1,2003-08-03T11:00:00Z,29.6350,-93.6417,2.0,70.58424224,13.11588731,-99999.0,'11111222,11111222,99999999' 
TABS,ioos:station:wmo:42051:1,2003-08-03T11:30:00Z,29.6350,-93.6417,2.0,44.57173455,7.566254027,-99999.0,'11133222,11111222,99999999' 
TABS,ioos:station:wmo:42051:1,2003-08-03T12:00:00Z,29.6350,-93.6417,2.0,47.36634769,9.419623135,-99999.0,'11133222,11111222,99999999' 
TABS,ioos:station:wmo:42051:1,2003-08-03T12:30:00Z,29.6350,-93.6417,2.0,47.61466267,13.79587257,-99999.0,'11111222,11111222,99999999' 
TABS,ioos:station:wmo:42051:1,2003-08-03T13:00:00Z,29.6350,-93.6417,2.0,72.12370306,14.92033512,-99999.0,'11111222,11111222,99999999' 
TABS,ioos:station:wmo:42051:1,2003-08-03T13:30:00Z,29.6350,-93.6417,2.0,77.66094158,11.79240433,-99999.0,'11111222,11111222,99999999' 
TABS,ioos:station:wmo:42051:1,2003-08-03T14:00:00Z,29.6350,-93.6417,2.0,78.4078517,10.74925579,-99999.0,'11111222,11111222,99999999' 
TABS,ioos:station:wmo:42051:1,2003-08-03T14:30:00Z,29.6350,-93.6417,2.0,88.70132872,11.91306006,-99999.0,'11111222,11111222,99999999' 
TABS,ioos:station:wmo:42051:1,2003-08-03T15:00:00Z,29.6350,-93.6417,2.0,97.06883537,8.857324653,-99999.0,'11133222,11111222,99999999' 
TABS,ioos:station:wmo:42051:1,2003-08-03T15:30:00Z,29.6350,-93.6417,2.0,87.85763998,10.96766611,-99999.0,'11111222,11111222,99999999' 
TABS,ioos:station:wmo:42051:1,2003-08-03T16:00:00Z,29.6350,-93.6417,2.0,91.29479413,16.3741809,-99999.0,'11111222,11111222,99999999' 
TABS,ioos:station:wmo:42051:1,2003-08-03T16:30:00Z,29.6350,-93.6417,2.0,94.55624457,14.22495343,-99999.0,'11111222,11111222,99999999' 
TABS,ioos:station:wmo:42051:1,2003-08-03T17:00:00Z,29.6350,-93.6417,2.0,80.60455595,14.0890028,-99999.0,'11111222,11111222,99999999' 
TABS,ioos:station:wmo:42051:1,2003-08-03T17:30:00Z,29.6350,-93.6417,2.0,82.89563252,17.22222401,-99999.0,'11111222,11111222,99999999' 
TABS,ioos:station:wmo:42051:1,2003-08-03T18:00:00Z,29.6350,-93.6417,2.0,91.33828732,17.55478852,-99999.0,'11111222,11111222,99999999' 
TABS,ioos:station:wmo:42051:1,2003-08-03T18:30:00Z,29.6350,-93.6417,2.0,87.26692717,20.13290093,-99999.0,'11111222,11111222,99999999' 
TABS,ioos:station:wmo:42051:1,2003-08-03T19:00:00Z,29.6350,-93.6417,2.0,80.41200073,20.23263206,-99999.0,'11111222,11111222,99999999' 
TABS,ioos:station:wmo:42051:1,2003-08-03T19:30:00Z,29.6350,-93.6417,2.0,80.884942,20.073485,-99999.0,'11111222,11111222,99999999' 
TABS,ioos:station:wmo:42051:1,2003-08-03T20:00:00Z,29.6350,-93.6417,2.0,78.21162334,22.07560192,-99999.0,'11111222,11111222,99999999' 
TABS,ioos:station:wmo:42051:1,2003-08-03T20:30:00Z,29.6350,-93.6417,2.0,79.92815373,24.41627531,-99999.0,'11111222,11111222,99999999' 
TABS,ioos:station:wmo:42051:1,2003-08-03T21:00:00Z,29.6350,-93.6417,2.0,90.54674106,25.1511451,-99999.0,'11111222,11111222,99999999' 
TABS,ioos:station:wmo:42051:1,2003-08-03T21:30:00Z,29.6350,-93.6417,2.0,88.1766398,25.14273056,-99999.0,'11111222,11111222,99999999' 
TABS,ioos:station:wmo:42051:1,2003-08-03T22:00:00Z,29.6350,-93.6417,2.0,85.95717393,20.99223666,-99999.0,'11111222,11111222,99999999' 
TABS,ioos:station:wmo:42051:1,2003-08-03T22:30:00Z,29.6350,-93.6417,2.0,79.66074811,20.83836846,-99999.0,'11111222,11111222,99999999' 
TABS,ioos:station:wmo:42051:1,2003-08-03T23:00:00Z,29.6350,-93.6417,2.0,83.4120187,21.70331081,-99999.0,'11111222,11111222,99999999' 
TABS,ioos:station:wmo:42051:1,2003-08-03T23:30:00Z,29.6350,-93.6417,2.0,82.12122534,26.11653308,-99999.0,'11111222,11111222,99999999' 
TABS,ioos:station:wmo:42051:1,2003-08-04T00:00:00Z,29.6350,-93.6417,2.0,82.89712706,22.48253767,-99999.0,'11111222,11111222,99999999' 
TABS,ioos:station:wmo:42051:1,2003-08-04T00:30:00Z,29.6350,-93.6417,2.0,79.46757747,21.39039504,-99999.0,'11111222,11111222,99999999' 
TABS,ioos:station:wmo:42051:1,2003-08-04T01:00:00Z,29.6350,-93.6417,2.0,82.02770228,25.16319733,-99999.0,'11111222,11111222,99999999' 
TABS,ioos:station:wmo:42051:1,2003-08-04T01:30:00Z,29.6350,-93.6417,2.0,80.92978689,22.58237366,-99999.0,'11111222,11111222,99999999' 
TABS,ioos:station:wmo:42051:1,2003-08-04T02:00:00Z,29.6350,-93.6417,2.0,86.92219276,17.13471622,-99999.0,'11111222,11111222,99999999' 
TABS,ioos:station:wmo:42051:1,2003-08-04T02:30:00Z,29.6350,-93.6417,2.0,85.88487181,17.97634557,-99999.0,'11111222,11111222,99999999' 
TABS,ioos:station:wmo:42051:1,2003-08-04T03:00:00Z,29.6350,-93.6417,2.0,77.19727667,16.78735536,-99999.0,'11111222,11111222,99999999' 
TABS,ioos:station:wmo:42051:1,2003-08-04T03:30:00Z,29.6350,-93.6417,2.0,77.57350807,16.40430736,-99999.0,'11111222,11111222,99999999' 
TABS,ioos:station:wmo:42051:1,2003-08-04T04:00:00Z,29.6350,-93.6417,2.0,76.83960829,17.61256938,-99999.0,'11111222,11111222,99999999' 
TABS,ioos:station:wmo:42051:1,2003-08-04T04:30:00Z,29.6350,-93.6417,2.0,76.28558553,18.1371001,-99999.0,'11111222,11111222,99999999' 
TABS,ioos:station:wmo:42051:1,2003-08-04T05:00:00Z,29.6350,-93.6417,2.0,80.23644166,13.44473503,-99999.0,'11111222,11111222,99999999' 
TABS,ioos:station:wmo:42051:1,2003-08-04T05:30:00Z,29.6350,-93.6417,2.0,77.85367254,17.06196061,-99999.0,'11111222,11111222,99999999' 
TABS,ioos:station:wmo:42051:1,2003-08-04T06:00:00Z,29.6350,-93.6417,2.0,75.07113978,14.63395025,-99999.0,'11111222,11111222,99999999' 
TABS,ioos:station:wmo:42051:1,2003-08-04T06:30:00Z,29.6350,-93.6417,2.0,72.48585924,15.15242885,-99999.0,'11111222,11111222,99999999' 
TABS,ioos:station:wmo:42051:1,2003-08-04T07:00:00Z,29.6350,-93.6417,2.0,75.3404284,14.93622777,-99999.0,'11111222,11111222,99999999' 
TABS,ioos:station:wmo:42051:1,2003-08-04T07:30:00Z,29.6350,-93.6417,2.0,69.07554719,16.38024725,-99999.0,'11111222,11111222,99999999' 
TABS,ioos:station:wmo:42051:1,2003-08-04T08:00:00Z,29.6350,-93.6417,2.0,77.76121876,15.0009333,-99999.0,'11111222,11111222,99999999' 
TABS,ioos:station:wmo:42051:1,2003-08-04T08:30:00Z,29.6350,-93.6417,2.0,84.53980018,13.66199107,-99999.0,'11111222,11111222,99999999' 
TABS,ioos:station:wmo:42051:1,2003-08-04T09:00:00Z,29.6350,-93.6417,2.0,81.35511099,12.90663395,-99999.0,'11111222,11111222,99999999' 
TABS,ioos:station:wmo:42051:1,2003-08-04T09:30:00Z,29.6350,-93.6417,2.0,78.35870733,12.8850456,-99999.0,'11111222,11111222,99999999' 
TABS,ioos:station:wmo:42051:1,2003-08-04T10:00:00Z,29.6350,-93.6417,2.0,84.63906272,20.87129368,-99999.0,'11111222,11111222,99999999' 
TABS,ioos:station:wmo:42051:1,2003-08-04T10:30:00Z,29.6350,-93.6417,2.0,77.05571337,20.49070521,-99999.0,'11111222,11111222,99999999' 
TABS,ioos:station:wmo:42051:1,2003-08-04T11:00:00Z,29.6350,-93.6417,2.0,81.43607245,17.92991355,-99999.0,'11111222,11111222,99999999' 
TABS,ioos:station:wmo:42051:1,2003-08-04T11:30:00Z,29.6350,-93.6417,2.0,67.09636519,14.28632913,-99999.0,'11111222,11111222,99999999' 
TABS,ioos:station:wmo:42051:1,2003-08-04T12:00:00Z,29.6350,-93.6417,2.0,69.40452265,13.58848042,-99999.0,'11111222,11111222,99999999' 
TABS,ioos:station:wmo:42051:1,2003-08-04T12:30:00Z,29.6350,-93.6417,2.0,60.95622763,10.34030947,-99999.0,'11111222,11111222,99999999' 
TABS,ioos:station:wmo:42051:1,2003-08-04T13:00:00Z,29.6350,-93.6417,2.0,61.67802674,7.293010352,-99999.0,'11133222,11111222,99999999' 
TABS,ioos:station:wmo:42051:1,2003-08-04T13:30:00Z,29.6350,-93.6417,2.0,57.37863317,8.774109641,-99999.0,'11133222,11111222,99999999' 
TABS,ioos:station:wmo:42051:1,2003-08-04T14:00:00Z,29.6350,-93.6417,2.0,62.89986578,7.661103054,-99999.0,'11133222,11111222,99999999' 
TABS,ioos:station:wmo:42051:1,2003-08-04T14:30:00Z,29.6350,-93.6417,2.0,50.24443108,10.28904757,-99999.0,'11111222,11111222,99999999' 
TABS,ioos:station:wmo:42051:1,2003-08-04T15:00:00Z,29.6350,-93.6417,2.0,55.00806163,11.71829339,-99999.0,'11111222,11111222,99999999' 
TABS,ioos:station:wmo:42051:1,2003-08-04T15:30:00Z,29.6350,-93.6417,2.0,57.27664739,11.67255328,-99999.0,'11111222,11111222,99999999' 
TABS,ioos:station:wmo:42051:1,2003-08-04T16:00:00Z,29.6350,-93.6417,2.0,78.58980998,13.44574282,-99999.0,'11111222,11111222,99999999' 
TABS,ioos:station:wmo:42051:1,2003-08-04T16:30:00Z,29.6350,-93.6417,2.0,74.13570831,12.62070125,-99999.0,'11111222,11111222,99999999' 